Pembrey Sands, United Kingdom

6:36 PM BST on August 20, 2017 (GMT +0100)
Pembrey Sands

Weather History for EGOP - October, 2013

Change the Weather History Date:

Saturday, October 12, 2013

  Actual Average Record
Temperature  
Mean Temperature 55 °F -  
Max Temperature 59 °F - - ()
Min Temperature 51 °F - - ()
Degree Days  
Heating Degree Days 10    
Growing Degree Days 5 (Base 50)    
Moisture  
Dew Point 49 °F    
Average Humidity 80    
Maximum Humidity 94    
Minimum Humidity 68    
Precipitation  
Precipitation 0.02 in - - ()
Sea Level Pressure  
Sea Level Pressure 30.14 in    
Wind  
Wind Speed 11 mph ()    
Max Wind Speed 18 mph    
Max Gust Speed -    
Visibility 7.7 miles    
Events      
T = Trace of Precipitation, MM = Missing Value Source: Averaged Metar Reports

Daily Weather History Graph

Daily Weather History Graph

Search for Another Location

Airport or City:

Trip Planner

Search our weather history database for the weather conditions in past years. The results will help you decide how hot, cold, wet, or windy it might be!

Date:

Astronomy

Oct. 12, 2013 Rise Set
Actual Time 7:36 AM BST 6:30 PM BST
Civil Twilight 7:03 AM BST 7:03 PM BST
Nautical Twilight 6:24 AM BST 7:42 PM BST
Astronomical Twilight 5:45 AM BST 8:21 PM BST
Moon 3:10 PM BST (10/12) No Moon Set
Length of Visible Light 12h 00m
Length of Day
10h 53m
First Quarter, 56% of the Moon is Illuminated
Oct 12
First Quarter
Oct 19
Full
Oct 27
Last Quarter
Nov 3
New
Nov 10
First Quarter

Hourly Weather History & Observations

Time (BST) Temp. Dew Point Humidity Pressure Visibility Wind Dir Wind Speed Gust Speed Precip Events Conditions
12:50 AM 53 °F 46 °F 70% 30.24 in 12 mi NE 18.4 mph - -   Overcast
12:50 AM 53.6 °F 46.4 °F 77% 30.21 in 6.2 mi NE 18.4 mph - N/A   Overcast
1:50 AM 51.8 °F 44.6 °F 76% 30.21 in 6.2 mi NE 15.0 mph - N/A   Overcast
2:50 AM 53.6 °F 44.6 °F 72% 30.21 in 6.2 mi NE 17.3 mph - N/A   Overcast
3:50 AM 52 °F 45 °F 68% 30.19 in 15 mi North 9.2 mph - -   Overcast
3:50 AM 51.8 °F 44.6 °F 76% 30.18 in 6.2 mi North 9.2 mph - N/A   Overcast
4:50 AM 51.8 °F 44.6 °F 76% 30.15 in 6.2 mi North 9.2 mph - N/A   Overcast
5:50 AM 51.8 °F 46.4 °F 82% 30.15 in 6.2 mi North 10.4 mph - N/A   Overcast
6:50 AM 52 °F 46 °F 74% 30.16 in 25 mi NNW 10.4 mph - -   Overcast
6:50 AM 51.8 °F 46.4 °F 82% 30.15 in 6.2 mi NNW 10.4 mph - N/A   Overcast
7:50 AM 53.6 °F 46.4 °F 77% 30.15 in 6.2 mi North 5.8 mph - N/A   Overcast
8:50 AM 53.6 °F 46.4 °F 77% 30.15 in 6.2 mi North 6.9 mph - N/A   Overcast
9:50 AM 55 °F 48 °F 71% 30.16 in 19 mi NNE 5.8 mph - -   Overcast
9:50 AM 55.4 °F 48.2 °F 77% 30.15 in 6.2 mi NNE 5.8 mph - N/A   Overcast
10:50 AM 55.4 °F 50.0 °F 82% 30.15 in 6.2 mi North 5.8 mph - N/A   Overcast
11:50 AM 57.2 °F 50.0 °F 77% 30.15 in 6.2 mi NE 15.0 mph - N/A   Overcast
12:50 PM 58 °F 50 °F 68% 30.15 in 19 mi NE 18.4 mph - -   Partly Cloudy
12:50 PM 57.2 °F 50.0 °F 77% 30.12 in 6.2 mi NE 18.4 mph - N/A   Mostly Cloudy
1:50 PM 57.2 °F 50.0 °F 77% 30.12 in 6.2 mi NE 18.4 mph - N/A   Mostly Cloudy
2:50 PM 57.2 °F 50.0 °F 77% 30.12 in 6.2 mi NE 17.3 mph - N/A   Mostly Cloudy
3:50 PM 57 °F 51 °F 74% 30.14 in 17 mi NE 15.0 mph - -   Mostly Cloudy
3:50 PM 57.2 °F 51.8 °F 82% 30.12 in 6.2 mi NE 15.0 mph - N/A   Mostly Cloudy
4:50 PM 59.0 °F 51.8 °F 77% 30.12 in 6.2 mi NNE 10.4 mph - N/A   Scattered Clouds
5:50 PM 57.2 °F 51.8 °F 82% 30.09 in 6.2 mi North 10.4 mph - N/A   Overcast
6:50 PM 56 °F 51 °F 79% 30.13 in 11 mi NNE 8.1 mph - -   Mostly Cloudy
6:50 PM 55.4 °F 51.8 °F 88% 30.12 in 6.2 mi NNE 8.1 mph - N/A   Mostly Cloudy
7:50 PM 55.4 °F 51.8 °F 88% 30.09 in 6.2 mi NNE 8.1 mph - N/A   Mostly Cloudy
8:50 PM 55.4 °F 51.8 °F 88% 30.09 in 6.2 mi North 5.8 mph - N/A   Mostly Cloudy
9:50 PM 54 °F 52 °F 92% 30.11 in 4 mi North 10.4 mph - -   Overcast
9:50 PM 53.6 °F 51.8 °F 94% 30.09 in 3.7 mi North 10.4 mph - N/A   Overcast
10:50 PM 53.6 °F 51.8 °F 94% 30.09 in 1.9 mi NNE 13.8 mph - N/A   Scattered Clouds
11:50 PM 53.6 °F 51.8 °F 94% 30.06 in 5.0 mi North 5.8 mph - N/A   Scattered Clouds